This demonstration page uses our WeatherBlox Daily Observations layout. Learn more.

Left ArrowRight Arrow

39.92423, -83.80882

Hourly Observations for September 23, 2022

Temp ( °F °C ) Dew Point ( °F °C ) Humidity (%) Winds ( mph kmh ) Pressure ( in mb ) Visibility ( mi km ) Precip ( " mm )
12:56 am 00:56 Clear 47 8.3 45 7.2 93 93 N 5 7 30.17 1022 10 16 0.00 0.00
1:56 am 01:56 Clear 46 7.8 46 7.8 100 100 NNW 5 7 30.18 1022 10 16 0.00 0.00
2:56 am 02:56 Clear 44 6.7 N/A N/A WNW 3 6 30.19 1022 10 16 0.00 0.00
3:56 am 03:56 Clear N/A N/A N/A Calm 30.23 1024 10 16 0.00 0.00
4:56 am 04:56 Clear 41 5 N/A N/A NW 3 6 30.20 1023 10 16 0.00 0.00
5:56 am 05:56 Clear 41 5 N/A N/A NW 5 7 30.22 1023 10 16 0.00 0.00
6:56 am 06:56 Clear N/A N/A N/A WNW 6 9 30.28 1026 10 16 0.00 0.00
7:56 am 07:56 Sunny 41 5 N/A N/A NNW 5 7 30.26 1025 10 16 0.00 0.00
8:56 am 08:56 Sunny 46 7.8 46 7.8 100 100 NNE 6 9 30.27 1025 10 16 0.00 0.00
9:56 am 09:56 Sunny 52 11.1 46 7.8 80 80 NE 6 9 30.28 1026 10 16 0.00 0.00
10:56 am 10:56 Sunny 56 13.3 44 6.7 64 64 Calm 30.29 1026 10 16 0.00 0.00
11:56 am 11:56 Sunny 59 15 42 5.6 53 53 NW 3 6 30.28 1025 10 16 0.00 0.00
12:56 pm 12:56 Sunny 59 15 37 2.8 44 44 Calm 30.27 1025 10 16 0.00 0.00
1:56 pm 13:56 Sunny 63 17.2 38 3.3 39 39 Calm 30.24 1024 10 16 0.00 0.00
2:56 pm 14:56 Sunny 64 17.8 38 3.3 38 38 VRB 5 7 30.21 1023 10 16 0.00 0.00
3:56 pm 15:56 Sunny 65 18.3 36 2.2 34 34 VRB 3 6 30.17 1022 10 16 0.00 0.00
4:56 pm 16:56 Sunny 64 17.8 38 3.3 38 38 WNW 3 6 30.19 1023 10 16 0.00 0.00
5:56 pm 17:56 Sunny 62 16.7 43 6.1 50 50 SW 3 6 30.19 1022 10 16 0.00 0.00
6:56 pm 18:56 Sunny 59 15 46 7.8 62 62 Calm 30.16 1021 10 16 0.00 0.00
7:56 pm 19:56 Clear 56 13.3 49 9.4 77 77 SSE 3 6 30.16 1021 10 16 0.00 0.00
8:56 pm 20:56 Clear 54 12.2 53 11.7 97 97 Calm 30.16 1021 10 16 0.00 0.00
9:56 pm 21:56 Clear 54 12.2 49 9.4 83 83 ESE 5 7 30.15 1021 10 16 0.00 0.00
10:56 pm 22:56 Mostly Clear 54 12.2 47 8.3 77 77 SSE 3 6 30.15 1021 10 16 0.00 0.00
11:56 pm 23:56 Mostly Cloudy 54 12.2 49 9.4 83 83 ESE 3 6 30.14 1021 10 16 0.00 0.00

Powered by AerisWeather